Regional Weather Roundup
Issued by NWS

Home | Current Version | Previous Version | Graphics & Text | Print | Product List | Glossary On
Versions: 1 2 3 4 5 6 7 8 9 10 11 12 13 14 15 16 17 18 19 20 21 22 23 24 25 26 27
000
ASUS45 KBOI 241010
RWRID

IDAHO REGIONAL WEATHER ROUNDUP
NATIONAL WEATHER SERVICE BOISE ID
400 AM MDT FRI MAR 24 2017

NOTE: "FAIR" INDICATES FEW OR NO CLOUDS BELOW 12000 FEET
WITH NO SIGNIFICANT WEATHER AND/OR OBSTRUCTIONS TO VISIBILITY

IDZ012-014-241100-
SOUTHWEST IDAHO


CITY           SKY/WX    TMP DP  RH WIND       PRES   REMARKS
BOISE          PTCLDY    44  25  47 SE16      30.03F
CALDWELL       NOT AVBL
MOUNTAIN HOME  CLEAR     40  35  83 E14       30.07S WCI  32
$$

IDZ016-017-241100-
SOUTHCENTRAL IDAHO


CITY           SKY/WX    TMP DP  RH WIND       PRES   REMARKS
BURLEY         CLEAR     36  26  67 SW12      30.11S WCI  28
JEROME         PTCLDY    36  27  69 SE7       30.11F WCI  30
TWIN FALLS     CLEAR     34  25  69 S12       30.09F WCI  25
$$

IDZ019>023-241100-
SOUTHEAST IDAHO


CITY           SKY/WX    TMP DP  RH WIND       PRES   REMARKS
IDAHO FALLS    CLEAR     38  23  55 S12       30.11F WCI  30
POCATELLO      CLEAR     33  25  72 S8        30.13F WCI  26
REXBURG        CLEAR     36  23  59 SW12      30.11S WCI  28
$$

IDZ006-010-011-018-031-032-241100-
CENTRAL IDAHO MOUNTAINS


CITY           SKY/WX    TMP DP  RH WIND       PRES   REMARKS
MCCALL         MOCLDY    27  22  81 CALM      30.02F
HAILEY         CLEAR     30  23  74 NW7       30.13R WCI  23
STANLEY          N/A     20  14  77 S5        30.10F WCI  13
SALMON         CLEAR     27  19  74 CALM      30.06F
CHALLIS        CLEAR     31  20  63 CALM      30.07R
$$

IDZ002-004-006-007-026-241100-
NORTHERN IDAHO


CITY           SKY/WX    TMP DP  RH WIND       PRES   REMARKS
LEWISTON       MOCLDY    42  33  70 E7        29.96F
LOWELL           N/A     34  31  88 N5        30.09S WCI  30
COEUR D`ALENE  CLOUDY    33  29  85 NE9       29.96F WCI  25
MULLAN PASS    PTCLDY    25  21  85 S9        29.95F WCI  15
$$




USA.gov is the U.S. government's official web portal to all federal, state and local government web resources and services.